Tel Aviv, Israel

12:07 AM IDT on April 27, 2018 (GMT +0300)
Ben Gurion

Weather History for LLBG - April, 2018

Change the Weather History Date:

Monday, April 16, 2018

  Actual Average Record
Temperature  
Mean Temperature 70 °F -  
Max Temperature 80 °F 76 °F 91 °F (1998)
Min Temperature 60 °F 59 °F 48 °F (1997)
Cooling Degree Days 5    
Growing Degree Days 20 (Base 50)    
Moisture  
Dew Point 59 °F    
Average Humidity 71    
Maximum Humidity 88    
Minimum Humidity 30    
Precipitation  
Precipitation 0.00 in - - ()
Sea Level Pressure  
Sea Level Pressure 29.96 in    
Wind  
Wind Speed 5 mph ()    
Max Wind Speed 16 mph    
Max Gust Speed -    
Visibility 4.6 miles    
Events      
Averages and records for this station are not official NWS values.
T = Trace of Precipitation, MM = Missing Value Source: Averaged Metar Reports

Daily Weather History Graph

Daily Weather History Graph

Search for Another Location

Airport or City:

Astronomy

Apr. 16, 2018 Rise Set
Actual Time 6:10 AM IDT 7:10 PM IDT
Civil Twilight 5:45 AM IDT 7:35 PM IDT
Nautical Twilight 5:15 AM IDT 8:05 PM IDT
Astronomical Twilight 4:45 AM IDT 8:35 PM IDT
Moon 6:36 AM IDT (4/16) 7:38 PM IDT (4/16)
Length of Visible Light 13h 49m
Length of Day
12h 59m
New Moon, 0% of the Moon is Illuminated
Apr 16
New Moon
Apr 23
First Quarter
Apr 30
Full
May 8
Last Quarter
May 15
New

Hourly Weather History & Observations

Time (IDT) Temp. Dew Point Humidity Pressure Visibility Wind Dir Wind Speed Gust Speed Precip Events Conditions
12:00 AM 66 °F 59 °F 72% 29.96 in 6 mi 3.5 mph - -  
12:20 AM 64.4 °F 59.0 °F 83% 29.95 in - Variable 2.3 mph - N/A   Clear
12:50 AM 64.4 °F 59.0 °F 83% 29.95 in - Variable 3.5 mph - N/A   Clear
1:20 AM 62.6 °F 57.2 °F 82% 29.95 in - Variable 3.5 mph - N/A   Clear
1:50 AM 64.4 °F 57.2 °F 77% 29.95 in - Variable 3.5 mph - N/A   Clear
2:20 AM 60.8 °F 55.4 °F 82% 29.95 in - SSE 4.6 mph - N/A   Clear
2:50 AM 62.6 °F 55.4 °F 77% 29.95 in - SE 4.6 mph - N/A   Clear
3:00 AM 63 °F 56 °F 70% 29.95 in 6 mi SE 4.6 mph - -  
3:20 AM 60.8 °F 55.4 °F 82% 29.92 in - SE 5.8 mph - N/A   Clear
3:50 AM 60.8 °F 55.4 °F 82% 29.92 in - SSE 5.8 mph - N/A   Clear
4:05 AM 60.8 °F 55.4 °F 82% 29.95 in 6.2 mi SE 4.6 mph - N/A   Scattered Clouds
4:20 AM 62.6 °F 55.4 °F 77% 29.95 in 6.2 mi Variable 3.5 mph - N/A   Mostly Cloudy
4:35 AM 62.6 °F 55.4 °F 77% 29.95 in 6.2 mi Variable 3.5 mph - N/A   Mostly Cloudy
4:50 AM 62.6 °F 57.2 °F 82% 29.95 in 6.2 mi Variable 3.5 mph - N/A   Overcast
5:05 AM 62.6 °F 55.4 °F 77% 29.95 in 6.2 mi Variable 3.5 mph - N/A   Overcast
5:20 AM 64.4 °F 57.2 °F 77% 29.95 in 5.6 mi ESE 4.6 mph - N/A   Overcast
6:05 AM 64.4 °F 60.8 °F 88% 29.95 in 3.7 mi Variable 3.5 mph - N/A   Mostly Cloudy
6:20 AM 64.4 °F 60.8 °F 88% 29.95 in 3.1 mi Variable 3.5 mph - N/A   Haze
6:35 AM 64.4 °F 60.8 °F 88% 29.95 in 3.1 mi Variable 3.5 mph - N/A   Haze
6:50 AM 64.4 °F 60.8 °F 88% 29.95 in 2.8 mi ESE 4.6 mph - N/A   Haze
7:05 AM 64.4 °F 59.0 °F 83% 29.95 in 2.8 mi East 4.6 mph - N/A   Haze
7:20 AM 64.4 °F 60.8 °F 88% 29.95 in 2.8 mi East 4.6 mph - N/A   Haze
7:35 AM 64.4 °F 59.0 °F 83% 29.95 in 2.8 mi ESE 4.6 mph - N/A   Haze
7:50 AM 64.4 °F 59.0 °F 83% 29.98 in 3.1 mi East 4.6 mph - N/A   Haze
8:05 AM 64.4 °F 59.0 °F 83% 29.98 in 3.1 mi Variable 3.5 mph - N/A   Haze
8:20 AM 64.4 °F 59.0 °F 83% 29.98 in 3.1 mi Variable 3.5 mph - N/A   Haze
8:35 AM 66.2 °F 59.0 °F 78% 29.98 in 3.1 mi Variable 2.3 mph - N/A   Haze
8:50 AM 66.2 °F 59.0 °F 78% 29.98 in 3.1 mi Variable 2.3 mph - N/A   Haze
9:00 AM 66 °F 59 °F 72% 29.98 in 3 mi 3.5 mph - -   Haze
9:20 AM 69.8 °F 59.0 °F 68% 29.98 in 4.3 mi Variable 1.2 mph - N/A   Unknown
9:50 AM 71.6 °F 59.0 °F 64% 29.98 in 5.6 mi Variable 3.5 mph - N/A   Unknown
10:20 AM 73.4 °F 59.0 °F 61% 29.98 in - Variable 3.5 mph - N/A   Clear
10:50 AM 77.0 °F 59.0 °F 54% 29.98 in - Variable 3.5 mph - N/A   Clear
11:20 AM 77.0 °F 53.6 °F 44% 29.98 in - NW 5.8 mph - N/A   Clear
11:50 AM 78.8 °F 59.0 °F 51% 29.98 in - NW 5.8 mph - N/A   Clear
12:00 PM 80 °F 54 °F 30% 29.97 in 6 mi WNW 10.4 mph - -  
12:20 PM 77.0 °F 60.8 °F 57% 29.95 in - WNW 13.8 mph - N/A   Clear
12:50 PM 78.8 °F 62.6 °F 57% 29.95 in - WNW 13.8 mph - N/A   Clear
1:20 PM 78.8 °F 60.8 °F 54% 29.95 in - WNW 11.5 mph - N/A   Clear
1:50 PM 78.8 °F 59.0 °F 51% 29.95 in - WNW 10.4 mph - N/A   Clear
2:20 PM 77.0 °F 59.0 °F 54% 29.95 in - NW 11.5 mph - N/A   Clear
2:50 PM 77.0 °F 60.8 °F 57% 29.95 in 6.2 mi WNW 10.4 mph - N/A   Partly Cloudy
3:00 PM 78 °F 60 °F 44% 29.95 in 6 mi WNW 11.5 mph - -   Scattered Clouds
3:50 PM 77.0 °F 60.8 °F 57% 29.95 in - NW 13.8 mph - N/A   Clear
4:20 PM 77.0 °F 59.0 °F 54% 29.95 in - NW 12.7 mph - N/A   Clear
4:50 PM 77.0 °F 59.0 °F 54% 29.95 in - NNW 16.1 mph - N/A   Clear
5:20 PM 75.2 °F 59.0 °F 57% 29.95 in - NNW 12.7 mph - N/A   Clear
5:50 PM 75.2 °F 59.0 °F 57% 29.95 in - NNW 11.5 mph - N/A   Clear
6:00 PM 75 °F 60 °F 49% 29.95 in 6 mi North 11.5 mph - -   Clear
6:20 PM 73.4 °F 59.0 °F 61% 29.95 in - North 10.4 mph - N/A   Clear
6:50 PM 71.6 °F 60.8 °F 69% 29.95 in - NNW 10.4 mph - N/A   Clear
7:20 PM 71.6 °F 60.8 °F 69% 29.95 in - NNW 6.9 mph - N/A   Clear
7:50 PM 69.8 °F 62.6 °F 78% 29.95 in - NW 6.9 mph - N/A   Clear
8:20 PM 69.8 °F 62.6 °F 78% 29.98 in - NNW 5.8 mph - N/A   Clear
8:50 PM 68.0 °F 60.8 °F 78% 29.98 in - NNW 5.8 mph - N/A   Clear
9:00 PM 68 °F 61 °F 73% 29.99 in 6 mi 3.5 mph - -  
9:20 PM 68.0 °F 60.8 °F 78% 29.98 in - Variable 2.3 mph - N/A   Clear
9:50 PM 68.0 °F 60.8 °F 78% 29.98 in - Variable 2.3 mph - N/A   Clear
10:20 PM 66.2 °F 60.8 °F 83% 30.01 in - Variable 3.5 mph - N/A   Clear
10:50 PM 66.2 °F 60.8 °F 83% 29.98 in - Variable 3.5 mph - N/A   Clear
11:20 PM 64.4 °F 60.8 °F 88% 30.01 in - Variable 2.3 mph - N/A   Clear
11:50 PM 64.4 °F 60.8 °F 88% 30.01 in - Variable 2.3 mph - N/A   Clear